| time (UTC) | temp C | wind direction | speed KPH | gust KPH | rain 1hr cm | rain 24hr cm | rain mn cm | humidity % | barometer mb |
| 20260505031952 | 15 | 147 | 0.0 | 0.0 | 0.00 | 0.00 | 0.00 | 66 | 1017.0 |
| 20260505031454 | 15 | 147 | 0.0 | 0.0 | 0.00 | 0.00 | 0.00 | 63 | 1017.0 |
| 20260505030952 | 15 | 149 | 0.0 | 0.0 | 0.00 | 0.00 | 0.00 | 63 | 1017.0 |
| 20260505030452 | 15 | 147 | 0.0 | 0.0 | 0.00 | 0.00 | 0.00 | 64 | 1017.0 |
| 20260505025954 | 15 | 149 | 0.0 | 0.0 | 0.00 | 0.00 | 0.00 | 65 | 1016.0 |
| 20260505025452 | 15 | 148 | 0.0 | 0.0 | 0.00 | 0.00 | 0.00 | 63 | 1016.0 |
| 20260505024954 | 15 | 149 | 0.0 | 0.0 | 0.00 | 0.00 | 0.00 | 62 | 1016.0 |
| 20260505024455 | 16 | 146 | 0.0 | 0.0 | 0.00 | 0.00 | 0.00 | 62 | 1016.0 |
| 20260505023954 | 16 | 148 | 0.0 | 0.0 | 0.00 | 0.00 | 0.00 | 60 | 1016.0 |
| 20260505023454 | 16 | 147 | 0.0 | 0.0 | 0.00 | 0.00 | 0.00 | 59 | 1016.0 |
| 20260505022954 | 16 | 147 | 0.0 | 0.0 | 0.00 | 0.00 | 0.00 | 58 | 1016.0 |
| 20260505022455 | 16 | 147 | 0.0 | 0.0 | 0.00 | 0.00 | 0.00 | 57 | 1016.0 |
| 20260505021954 | 16 | 143 | 0.0 | 0.0 | 0.00 | 0.00 | 0.00 | 58 | 1016.0 |
| 20260505021454 | 16 | 148 | 0.0 | 0.0 | 0.00 | 0.00 | 0.00 | 62 | 1016.0 |
| 20260505020952 | 16 | 150 | 0.0 | 0.0 | 0.00 | 0.00 | 0.00 | 60 | 1016.0 |
| 20260505020454 | 16 | 149 | 0.0 | 0.0 | 0.00 | 0.00 | 0.00 | 61 | 1016.0 |
| 20260505015952 | 16 | 148 | 0.0 | 0.0 | 0.00 | 0.00 | 0.00 | 64 | 1016.0 |
| 20260505015452 | 16 | 145 | 0.0 | 0.0 | 0.00 | 0.00 | 0.00 | 62 | 1016.0 |
| 20260505014952 | 16 | 148 | 0.0 | 0.0 | 0.00 | 0.00 | 0.00 | 60 | 1016.0 |
| 20260505014452 | 16 | 148 | 0.0 | 0.0 | 0.00 | 0.00 | 0.00 | 59 | 1016.0 |
| 20260505013953 | 16 | 149 | 0.0 | 0.0 | 0.00 | 0.00 | 0.00 | 59 | 1016.0 |
| 20260505013452 | 16 | 144 | 0.0 | 0.0 | 0.00 | 0.00 | 0.00 | 60 | 1015.0 |
| 20260505012952 | 16 | 148 | 0.0 | 0.0 | 0.00 | 0.00 | 0.00 | 59 | 1015.0 |
| 20260505012452 | 17 | 147 | 0.0 | 0.0 | 0.00 | 0.00 | 0.00 | 59 | 1015.0 |
| 20260505011952 | 17 | 148 | 0.0 | 0.0 | 0.00 | 0.00 | 0.00 | 59 | 1015.0 |
| 20260505011453 | 17 | 148 | 0.0 | 0.0 | 0.00 | 0.00 | 0.00 | 58 | 1015.0 |
| 20260505010952 | 17 | 149 | 0.0 | 0.0 | 0.00 | 0.00 | 0.00 | 57 | 1015.0 |
| 20260505010454 | 17 | 148 | 0.0 | 0.0 | 0.00 | 0.00 | 0.00 | 55 | 1015.0 |
| 20260505005955 | 17 | 148 | 0.0 | 0.0 | 0.00 | 0.00 | 0.00 | 55 | 1015.0 |
| 20260505005454 | 18 | 148 | 0.0 | 0.0 | 0.00 | 0.00 | 0.00 | 52 | 1015.0 |
| 20260505004952 | 18 | 148 | 0.0 | 0.0 | 0.00 | 0.00 | 0.00 | 50 | 1015.0 |
| 20260505004453 | 18 | 148 | 0.0 | 0.0 | 0.00 | 0.00 | 0.00 | 51 | 1015.0 |
| 20260505003952 | 18 | 143 | 0.0 | 0.0 | 0.00 | 0.00 | 0.00 | 53 | 1015.0 |
| 20260505003452 | 19 | 148 | 0.0 | 0.0 | 0.00 | 0.00 | 0.00 | 50 | 1015.0 |
| 20260505002952 | 19 | 148 | 0.0 | 0.0 | 0.00 | 0.00 | 0.00 | 48 | 1015.0 |
| 20260505002452 | 20 | 147 | 0.0 | 0.0 | 0.00 | 0.00 | 0.00 | 45 | 1015.0 |
| 20260505001952 | 20 | 148 | 0.0 | 0.0 | 0.00 | 0.00 | 0.00 | 43 | 1015.0 |
| 20260505001453 | 20 | 148 | 0.0 | 0.0 | 0.00 | 0.00 | 0.00 | 44 | 1015.0 |
| 20260505000953 | 21 | 145 | 0.0 | 0.0 | 0.00 | 0.00 | 0.00 | 47 | 1015.0 |
| 20260505000454 | 21 | 150 | 0.0 | 0.0 | 0.00 | 0.00 | 0.00 | 47 | 1015.0 |
| 20260504182455 | 27 | 123 | 1.6 | 1.6 | 0.00 | 0.00 | 0.00 | 27 | 1017.0 |
| 20260504181953 | 27 | 154 | 3.2 | 3.2 | 0.00 | 0.00 | 0.00 | 26 | 1017.0 |
| 20260504181453 | 27 | 147 | 3.2 | 4.8 | 0.00 | 0.00 | 0.00 | 31 | 1017.0 |
| 20260504180953 | 26 | 157 | 1.6 | 1.6 | 0.00 | 0.00 | 0.00 | 29 | 1017.0 |
| 20260504180454 | 26 | 148 | 4.8 | 4.8 | 0.00 | 0.00 | 0.00 | 25 | 1017.0 |
| 20260504175953 | 26 | 174 | 8.0 | 11.3 | 0.00 | 0.00 | 0.00 | 27 | 1017.0 |
| 20260504175452 | 26 | 168 | 4.8 | 8.0 | 0.00 | 0.00 | 0.00 | 27 | 1017.0 |
| 20260504174953 | 26 | 150 | 0.0 | 3.2 | 0.00 | 0.00 | 0.00 | 32 | 1017.0 |
| 20260504174453 | 26 | 143 | 1.6 | 3.2 | 0.00 | 0.00 | 0.00 | 35 | 1017.0 |
| 20260504173953 | 26 | 146 | 1.6 | 1.6 | 0.00 | 0.00 | 0.00 | 28 | 1017.0 |
| 20260504173453 | 26 | 236 | 4.8 | 4.8 | 0.00 | 0.00 | 0.00 | 28 | 1017.0 |
| 20260504172952 | 26 | 145 | 1.6 | 1.6 | 0.00 | 0.00 | 0.00 | 29 | 1017.0 |
| 20260504172452 | 26 | 244 | 3.2 | 4.8 | 0.00 | 0.00 | 0.00 | 26 | 1017.0 |
| 20260504171952 | 25 | 145 | 0.0 | 1.6 | 0.00 | 0.00 | 0.00 | 28 | 1017.0 |
| 20260504171453 | 26 | 161 | 1.6 | 1.6 | 0.00 | 0.00 | 0.00 | 28 | 1017.0 |
| 20260504170953 | 25 | 109 | 1.6 | 3.2 | 0.00 | 0.00 | 0.00 | 30 | 1017.0 |
| 20260504170455 | 25 | 150 | 3.2 | 4.8 | 0.00 | 0.00 | 0.00 | 30 | 1017.0 |
| 20260504150955 | 22 | 152 | 0.0 | 1.6 | 0.00 | 0.00 | 0.00 | 45 | 1018.0 |
| 20260504150455 | 22 | 156 | 1.6 | 1.6 | 0.00 | 0.00 | 0.00 | 47 | 1018.0 |
| 20260504140953 | 19 | 148 | 0.0 | 1.6 | 0.00 | 0.00 | 0.00 | 58 | 1018.0 |
| 20260504140456 | 19 | 169 | 0.0 | 0.0 | 0.00 | 0.00 | 0.00 | 55 | 1018.0 |
| 20260504130455 | 13 | 152 | 0.0 | 0.0 | 0.00 | 0.00 | 0.00 | 79 | 1018.0 |
| 20260504110452 | 6 | 150 | 0.0 | 0.0 | 0.00 | 0.00 | 0.00 | 99 | 1018.0 |
| 20260504100452 | 6 | 150 | 0.0 | 0.0 | 0.00 | 0.00 | 0.00 | 99 | 1018.0 |
| 20260504081952 | 6 | 150 | 0.0 | 0.0 | 0.00 | 0.00 | 0.00 | 99 | 1017.0 |
| 20260504081453 | 7 | 150 | 0.0 | 0.0 | 0.00 | 0.00 | 0.00 | 99 | 1017.0 |
| 20260504080953 | 7 | 150 | 0.0 | 0.0 | 0.00 | 0.00 | 0.00 | 99 | 1017.0 |
| 20260504080452 | 7 | 149 | 0.0 | 0.0 | 0.00 | 0.00 | 0.00 | 99 | 1017.0 |
| 20260504050452 | 8 | 146 | 0.0 | 0.0 | 0.00 | 0.00 | 0.00 | 97 | 1018.0 |
| 20260504045952 | 8 | 146 | 0.0 | 0.0 | 0.00 | 0.00 | 0.00 | 97 | 1018.0 |
| 20260504045453 | 8 | 146 | 0.0 | 0.0 | 0.00 | 0.00 | 0.00 | 97 | 1018.0 |
| 20260504044952 | 8 | 146 | 0.0 | 0.0 | 0.00 | 0.00 | 0.00 | 96 | 1018.0 |
| 20260504044453 | 8 | 149 | 0.0 | 0.0 | 0.00 | 0.00 | 0.00 | 96 | 1018.0 |
| 20260504043952 | 8 | 149 | 0.0 | 0.0 | 0.00 | 0.00 | 0.00 | 95 | 1018.0 |
| 20260504043456 | 8 | 149 | 0.0 | 0.0 | 0.00 | 0.00 | 0.00 | 95 | 1018.0 |
| 20260504042952 | 8 | 150 | 0.0 | 0.0 | 0.00 | 0.00 | 0.00 | 95 | 1018.0 |
| 20260504042453 | 8 | 149 | 0.0 | 0.0 | 0.00 | 0.00 | 0.00 | 94 | 1018.0 |
| 20260504041952 | 8 | 149 | 0.0 | 0.0 | 0.00 | 0.00 | 0.00 | 93 | 1018.0 |
| 20260504041454 | 8 | 149 | 0.0 | 0.0 | 0.00 | 0.00 | 0.00 | 92 | 1018.0 |
| 20260504040952 | 9 | 150 | 0.0 | 0.0 | 0.00 | 0.00 | 0.00 | 91 | 1018.0 |
| 20260504040452 | 9 | 149 | 0.0 | 0.0 | 0.00 | 0.00 | 0.00 | 90 | 1018.0 |
| 20260504035952 | 9 | 149 | 0.0 | 0.0 | 0.00 | 0.00 | 0.00 | 91 | 1018.0 |
| 20260504035452 | 9 | 149 | 0.0 | 0.0 | 0.00 | 0.00 | 0.00 | 91 | 1018.0 |
| 20260504034952 | 9 | 149 | 0.0 | 0.0 | 0.00 | 0.00 | 0.00 | 92 | 1018.0 |
| 20260504034452 | 9 | 149 | 0.0 | 0.0 | 0.00 | 0.00 | 0.00 | 91 | 1018.0 |
| 20260504033953 | 9 | 149 | 0.0 | 0.0 | 0.00 | 0.00 | 0.00 | 91 | 1018.0 |
| 20260504033452 | 9 | 149 | 0.0 | 0.0 | 0.00 | 0.00 | 0.00 | 90 | 1018.0 |
| 20260504032952 | 9 | 149 | 0.0 | 0.0 | 0.00 | 0.00 | 0.00 | 88 | 1018.0 |
| 20260504032452 | 10 | 150 | 0.0 | 0.0 | 0.00 | 0.00 | 0.00 | 86 | 1018.0 |